Time,TemperatureF,DewpointF,PressureIn,WindDirection,WindDirectionDegrees,WindSpeedMPH,WindSpeedGustMPH,Humidity,HourlyPrecipIn,Conditions,Clouds,dailyrainin,SoftwareType,DateUTC
2013-01-30 00:02:00,31.0,28.0,29.55,NW,311,0.0,2.0,90,0.00,,,0.14,,2013-01-30 06:02:00,
2013-01-30 00:11:00,31.0,28.0,29.55,NW,311,0.0,2.0,90,0.00,,,0.14,,2013-01-30 06:11:00,
2013-01-30 00:21:00,31.0,29.0,29.55,East,93,0.0,2.0,92,0.00,,,0.14,,2013-01-30 06:21:00,
2013-01-30 00:32:00,31.0,29.0,29.56,WNW,288,0.0,7.0,91,0.00,,,0.14,,2013-01-30 06:32:00,
2013-01-30 00:42:00,31.0,29.0,29.56,WNW,288,0.0,7.0,91,0.00,,,0.14,,2013-01-30 06:42:00,
2013-01-30 00:51:00,31.0,29.0,29.56,NNE,33,0.0,2.0,91,0.00,,,0.14,,2013-01-30 06:51:00,
2013-01-30 01:02:00,31.0,29.0,29.56,NNE,33,0.0,2.0,91,0.00,,,0.14,,2013-01-30 07:02:00,
2013-01-30 01:11:00,31.0,29.0,29.56,NNE,33,0.0,2.0,91,0.00,,,0.14,,2013-01-30 07:11:00,
2013-01-30 01:21:00,31.0,29.0,29.54,SE,144,0.0,2.0,91,0.00,,,0.14,,2013-01-30 07:21:00,
2013-01-30 01:32:00,31.0,29.0,29.54,SE,144,0.0,2.0,91,0.00,,,0.14,,2013-01-30 07:32:00,
2013-01-30 01:42:00,31.0,29.0,29.54,SE,144,0.0,2.0,91,0.00,,,0.14,,2013-01-30 07:42:00,
2013-01-30 01:52:00,30.0,28.0,29.53,NNW,342,0.0,5.0,91,0.00,,,0.14,,2013-01-30 07:52:00,
2013-01-30 02:01:00,30.0,28.0,29.52,WNW,295,0.0,5.0,91,0.00,,,0.14,,2013-01-30 08:01:00,
2013-01-30 02:11:00,30.0,28.0,29.52,WNW,295,0.0,5.0,91,0.00,,,0.14,,2013-01-30 08:11:00,
2013-01-30 02:21:00,30.0,28.0,29.54,West,266,0.0,3.0,92,0.00,,,0.14,,2013-01-30 08:21:00,
2013-01-30 02:32:00,29.0,26.0,29.53,NW,317,0.0,7.0,90,0.00,,,0.14,,2013-01-30 08:32:00,
2013-01-30 02:42:00,29.0,26.0,29.53,NW,317,0.0,7.0,90,0.00,,,0.14,,2013-01-30 08:42:00,
2013-01-30 02:52:00,29.0,27.0,29.53,West,260,0.0,6.0,91,0.00,,,0.14,,2013-01-30 08:52:00,
2013-01-30 03:01:00,29.0,27.0,29.50,WSW,248,0.0,5.0,91,0.00,,,0.14,,2013-01-30 09:01:00,
2013-01-30 03:11:00,29.0,27.0,29.50,WSW,248,0.0,5.0,91,0.00,,,0.14,,2013-01-30 09:11:00,
2013-01-30 03:21:00,28.0,26.0,29.49,WNW,290,0.0,3.0,91,0.00,,,0.14,,2013-01-30 09:21:00,
2013-01-30 03:32:00,28.0,25.0,29.49,NW,323,1.0,6.0,90,0.00,,,0.14,,2013-01-30 09:32:00,
2013-01-30 03:42:00,28.0,25.0,29.49,NW,323,1.0,6.0,90,0.00,,,0.14,,2013-01-30 09:42:00,
2013-01-30 03:51:00,28.0,25.0,29.49,North,358,0.0,5.0,90,0.00,,,0.14,,2013-01-30 09:51:00,
2013-01-30 04:01:00,28.0,25.0,29.50,West,262,0.0,4.0,89,0.00,,,0.14,,2013-01-30 10:01:00,
2013-01-30 04:11:00,28.0,25.0,29.50,West,262,0.0,4.0,89,0.00,,,0.14,,2013-01-30 10:11:00,
2013-01-30 04:21:00,28.0,25.0,29.50,NNW,344,0.0,3.0,90,0.00,,,0.14,,2013-01-30 10:21:00,
2013-01-30 04:32:00,28.0,25.0,29.50,West,269,1.0,6.0,90,0.00,,,0.14,,2013-01-30 10:32:00,
2013-01-30 04:41:00,28.0,25.0,29.50,West,269,1.0,6.0,90,0.00,,,0.14,,2013-01-30 10:41:00,
2013-01-30 04:52:00,28.0,25.0,29.51,NNW,333,0.0,6.0,90,0.00,,,0.14,,2013-01-30 10:52:00,
2013-01-30 05:02:00,27.0,24.0,29.53,NW,321,1.0,5.0,89,0.00,,,0.14,,2013-01-30 11:02:00,
2013-01-30 05:11:00,27.0,24.0,29.53,NW,321,1.0,5.0,89,0.00,,,0.14,,2013-01-30 11:11:00,
2013-01-30 05:22:00,27.0,24.0,29.49,NNW,338,0.0,8.0,89,0.00,,,0.14,,2013-01-30 11:22:00,
2013-01-30 05:32:00,27.0,24.0,29.49,West,281,0.0,6.0,89,0.00,,,0.14,,2013-01-30 11:32:00,
2013-01-30 05:42:00,27.0,24.0,29.49,West,281,0.0,6.0,89,0.00,,,0.14,,2013-01-30 11:42:00,
2013-01-30 05:52:00,27.0,24.0,29.50,East,98,0.0,4.0,89,0.00,,,0.14,,2013-01-30 11:52:00,
2013-01-30 06:02:00,26.0,23.0,29.49,ESE,110,0.0,5.0,89,0.00,,,0.14,,2013-01-30 12:02:00,
2013-01-30 06:12:00,26.0,23.0,29.49,ESE,110,0.0,5.0,89,0.00,,,0.14,,2013-01-30 12:12:00,
2013-01-30 06:22:00,26.0,23.0,29.50,SE,124,0.0,5.0,89,0.00,,,0.14,,2013-01-30 12:22:00,
2013-01-30 06:33:00,26.0,23.0,29.51,SW,236,0.0,3.0,87,0.00,,,0.14,,2013-01-30 12:33:00,
2013-01-30 06:42:00,26.0,23.0,29.51,SW,236,0.0,3.0,87,0.00,,,0.14,,2013-01-30 12:42:00,
2013-01-30 07:03:00,25.0,21.0,29.47,NW,304,2.0,7.0,85,0.00,,,0.14,,2013-01-30 13:03:00,
2013-01-30 07:12:00,25.0,21.0,29.47,NW,304,2.0,7.0,85,0.00,,,0.14,,2013-01-30 13:12:00,
2013-01-30 07:23:00,25.0,21.0,29.49,North,6,1.0,4.0,86,0.00,,,0.14,,2013-01-30 13:23:00,
2013-01-30 07:33:00,25.0,21.0,29.49,NE,53,0.0,4.0,86,0.00,,,0.14,,2013-01-30 13:33:00,
2013-01-30 07:42:00,25.0,21.0,29.49,NE,53,0.0,4.0,86,0.00,,,0.14,,2013-01-30 13:42:00,
2013-01-30 07:53:00,24.0,20.0,29.48,NNW,328,0.0,4.0,86,0.00,,,0.14,,2013-01-30 13:53:00,
2013-01-30 08:02:00,24.0,20.0,29.48,NNE,15,0.0,4.0,86,0.00,,,0.14,,2013-01-30 14:02:00,
2013-01-30 08:12:00,24.0,20.0,29.48,NNE,15,0.0,4.0,86,0.00,,,0.14,,2013-01-30 14:12:00,
2013-01-30 08:22:00,24.0,20.0,29.49,North,356,0.0,4.0,86,0.00,,,0.14,,2013-01-30 14:22:00,
2013-01-30 08:33:00,24.0,20.0,29.49,West,262,1.0,7.0,86,0.00,,,0.14,,2013-01-30 14:33:00,
2013-01-30 08:42:00,24.0,20.0,29.49,West,262,1.0,7.0,86,0.00,,,0.14,,2013-01-30 14:42:00,
2013-01-30 08:52:00,24.0,20.0,29.47,North,356,1.0,6.0,86,0.00,,,0.14,,2013-01-30 14:52:00,
2013-01-30 09:03:00,24.0,21.0,29.46,East,82,1.0,7.0,87,0.00,,,0.14,,2013-01-30 15:03:00,
2013-01-30 09:12:00,24.0,21.0,29.46,East,82,1.0,7.0,87,0.00,,,0.14,,2013-01-30 15:12:00,
2013-01-30 09:23:00,24.0,22.0,29.46,North,11,1.0,7.0,90,0.00,,,0.14,,2013-01-30 15:23:00,
2013-01-30 09:33:00,24.0,22.0,29.46,SE,124,0.0,3.0,91,0.00,,,0.14,,2013-01-30 15:33:00,
2013-01-30 09:43:00,24.0,22.0,29.46,SE,124,0.0,3.0,91,0.00,,,0.14,,2013-01-30 15:43:00,
2013-01-30 09:53:00,24.0,22.0,29.46,NW,316,0.0,10.0,90,0.00,,,0.14,,2013-01-30 15:53:00,
2013-01-30 10:03:00,23.0,21.0,29.44,WNW,282,0.0,3.0,92,0.00,,,0.14,,2013-01-30 16:03:00,
2013-01-30 10:12:00,23.0,21.0,29.44,WNW,282,0.0,3.0,92,0.00,,,0.14,,2013-01-30 16:12:00,
2013-01-30 10:23:00,24.0,22.0,29.41,NE,50,0.0,5.0,91,0.00,,,0.14,,2013-01-30 16:23:00,
2013-01-30 10:32:00,24.0,22.0,29.41,NE,50,0.0,5.0,91,0.00,,,0.14,,2013-01-30 16:32:00,
2013-01-30 10:42:00,24.0,22.0,29.41,NE,50,0.0,5.0,91,0.00,,,0.14,,2013-01-30 16:42:00,
2013-01-30 10:52:00,24.0,22.0,29.41,NE,50,0.0,5.0,91,0.00,,,0.14,,2013-01-30 16:52:00,
2013-01-30 11:02:00,24.0,21.0,29.43,East,80,0.0,3.0,88,0.00,,,0.14,,2013-01-30 17:02:00,
2013-01-30 11:12:00,24.0,21.0,29.43,East,80,0.0,3.0,88,0.00,,,0.14,,2013-01-30 17:12:00,
2013-01-30 11:23:00,23.0,20.0,29.42,WNW,293,0.0,7.0,88,0.00,,,0.14,,2013-01-30 17:23:00,
2013-01-30 11:33:00,23.0,19.0,29.41,NNW,338,1.0,7.0,86,0.00,,,0.14,,2013-01-30 17:33:00,
2013-01-30 11:42:00,23.0,19.0,29.41,NNW,338,1.0,7.0,86,0.00,,,0.14,,2013-01-30 17:42:00,
2013-01-30 11:53:00,22.0,19.0,29.40,WNW,283,0.0,5.0,87,0.00,,,0.14,,2013-01-30 17:53:00,
2013-01-30 12:02:00,21.0,19.0,29.40,NNW,343,1.0,8.0,90,0.00,,,0.14,,2013-01-30 18:02:00,
2013-01-30 12:12:00,21.0,19.0,29.40,NNW,343,1.0,8.0,90,0.00,,,0.14,,2013-01-30 18:12:00,
2013-01-30 12:22:00,20.0,18.0,29.39,WNW,295,0.0,7.0,90,0.00,,,0.14,,2013-01-30 18:22:00,
2013-01-30 12:33:00,20.0,17.0,29.39,WSW,245,0.0,3.0,88,0.00,,,0.13,,2013-01-30 18:33:00,
2013-01-30 12:42:00,20.0,17.0,29.39,WSW,245,0.0,3.0,88,0.00,,,0.13,,2013-01-30 18:42:00,
2013-01-30 12:53:00,20.0,17.0,29.39,East,96,1.0,5.0,88,0.00,,,0.13,,2013-01-30 18:53:00,
2013-01-30 13:02:00,19.0,16.0,29.40,ENE,62,1.0,7.0,89,0.00,,,0.13,,2013-01-30 19:02:00,
2013-01-30 13:12:00,19.0,16.0,29.40,ENE,62,1.0,7.0,89,0.00,,,0.13,,2013-01-30 19:12:00,
2013-01-30 13:22:00,19.0,17.0,29.39,West,263,0.0,3.0,90,0.00,,,0.13,,2013-01-30 19:22:00,
2013-01-30 13:32:00,18.0,15.0,29.40,NNW,347,0.0,6.0,89,0.00,,,0.13,,2013-01-30 19:32:00,
2013-01-30 13:43:00,18.0,15.0,29.40,NNW,347,0.0,6.0,89,0.00,,,0.13,,2013-01-30 19:43:00,
2013-01-30 13:53:00,18.0,16.0,29.39,West,267,0.0,1.0,90,0.00,,,0.13,,2013-01-30 19:53:00,
2013-01-30 14:03:00,18.0,16.0,29.38,WSW,257,0.0,4.0,90,0.00,,,0.13,,2013-01-30 20:03:00,
2013-01-30 14:12:00,18.0,16.0,29.38,WSW,257,0.0,4.0,90,0.00,,,0.13,,2013-01-30 20:12:00,
2013-01-30 14:22:00,17.0,14.0,29.38,NW,314,0.0,5.0,89,0.00,,,0.13,,2013-01-30 20:22:00,
2013-01-30 14:33:00,17.0,15.0,29.37,SW,222,0.0,6.0,90,0.00,,,0.11,,2013-01-30 20:33:00,
2013-01-30 14:42:00,17.0,15.0,29.37,SW,222,0.0,6.0,90,0.00,,,0.11,,2013-01-30 20:42:00,
2013-01-30 14:53:00,17.0,15.0,29.37,West,278,0.0,6.0,90,0.00,,,0.11,,2013-01-30 20:53:00,
2013-01-30 15:03:00,16.0,14.0,29.38,West,274,0.0,4.0,90,0.00,,,0.11,,2013-01-30 21:03:00,
2013-01-30 15:12:00,16.0,14.0,29.38,West,274,0.0,4.0,90,0.00,,,0.11,,2013-01-30 21:12:00,
2013-01-30 15:23:00,16.0,13.0,29.38,North,11,1.0,10.0,89,0.00,,,0.07,,2013-01-30 21:23:00,
2013-01-30 15:32:00,16.0,13.0,29.38,WNW,292,0.0,5.0,88,0.00,,,0.07,,2013-01-30 21:32:00,
2013-01-30 15:42:00,16.0,13.0,29.38,WNW,292,0.0,5.0,88,0.00,,,0.07,,2013-01-30 21:42:00,
2013-01-30 15:53:00,15.0,12.0,29.38,NW,317,0.0,5.0,89,0.00,,,0.07,,2013-01-30 21:53:00,
2013-01-30 16:02:00,15.0,12.0,29.38,SSW,207,0.0,4.0,89,0.00,,,0.07,,2013-01-30 22:02:00,
2013-01-30 16:12:00,15.0,12.0,29.38,SSW,207,0.0,4.0,89,0.00,,,0.07,,2013-01-30 22:12:00,
2013-01-30 16:22:00,15.0,12.0,29.38,SSE,149,0.0,5.0,89,0.00,,,0.03,,2013-01-30 22:22:00,
2013-01-30 16:32:00,15.0,12.0,29.38,SSE,149,0.0,5.0,89,0.00,,,0.03,,2013-01-30 22:32:00,
2013-01-30 16:42:00,15.0,12.0,29.38,SSE,149,0.0,5.0,89,0.00,,,0.03,,2013-01-30 22:42:00,
2013-01-30 16:53:00,14.0,11.0,29.39,SSW,205,0.0,6.0,88,0.00,,,0.03,,2013-01-30 22:53:00,
2013-01-30 17:02:00,13.0,10.0,29.39,WSW,257,0.0,4.0,88,0.00,,,0.03,,2013-01-30 23:02:00,
2013-01-30 17:12:00,13.0,10.0,29.39,WSW,257,0.0,4.0,88,0.00,,,0.03,,2013-01-30 23:12:00,
2013-01-30 17:22:00,13.0,10.0,29.39,NW,316,0.0,6.0,89,0.00,,,0.01,,2013-01-30 23:22:00,
2013-01-30 17:32:00,13.0,10.0,29.39,ENE,73,0.0,5.0,88,0.00,,,0.01,,2013-01-30 23:32:00,
2013-01-30 17:42:00,13.0,10.0,29.39,ENE,73,0.0,5.0,88,0.00,,,0.01,,2013-01-30 23:42:00,
2013-01-30 17:52:00,13.0,10.0,29.40,WNW,297,0.0,5.0,87,0.00,,,0.01,,2013-01-30 23:52:00,
2013-01-30 18:02:00,13.0,10.0,29.40,West,270,0.0,5.0,87,0.00,,,0.01,,2013-01-31 00:02:00,
2013-01-30 18:11:00,13.0,10.0,29.40,West,270,0.0,5.0,87,0.00,,,0.01,,2013-01-31 00:11:00,
2013-01-30 18:22:00,12.0,9.0,29.40,NW,316,0.0,3.0,88,0.00,,,0.01,,2013-01-31 00:22:00,
2013-01-30 18:32:00,12.0,9.0,29.41,NNW,327,0.0,3.0,89,0.00,,,0.01,,2013-01-31 00:32:00,
2013-01-30 18:42:00,12.0,9.0,29.41,NNW,327,0.0,3.0,89,0.00,,,0.01,,2013-01-31 00:42:00,
2013-01-30 18:53:00,12.0,9.0,29.41,ENE,75,1.0,6.0,88,0.00,,,0.01,,2013-01-31 00:53:00,
2013-01-30 19:02:00,12.0,9.0,29.41,NNE,12,0.0,4.0,89,0.00,,,0.01,,2013-01-31 01:02:00,
2013-01-30 19:11:00,12.0,9.0,29.41,NNE,12,0.0,4.0,89,0.00,,,0.01,,2013-01-31 01:11:00,
2013-01-30 19:21:00,12.0,9.0,29.41,West,279,0.0,4.0,89,0.00,,,0.00,,2013-01-31 01:21:00,
2013-01-30 19:31:00,12.0,9.0,29.41,NW,313,0.0,-999.0,89,-99.99,,,-99.99,,2013-01-31 01:31:00,
2013-01-30 19:42:00,12.0,9.0,29.41,NW,313,0.0,-999.0,89,-99.99,,,-99.99,,2013-01-31 01:42:00,
2013-01-30 19:52:00,11.0,8.0,29.41,South,170,1.0,5.0,88,0.00,,,0.00,,2013-01-31 01:52:00,
2013-01-30 20:01:00,11.0,8.0,29.41,SW,217,0.0,3.0,87,0.00,,,0.00,,2013-01-31 02:01:00,
2013-01-30 20:11:00,11.0,8.0,29.41,SW,217,0.0,3.0,87,0.00,,,0.00,,2013-01-31 02:11:00,
2013-01-30 20:21:00,11.0,8.0,29.41,West,277,0.0,3.0,87,0.00,,,0.00,,2013-01-31 02:21:00,
2013-01-30 20:32:00,11.0,8.0,29.41,NW,309,0.0,6.0,87,0.00,,,0.00,,2013-01-31 02:32:00,
2013-01-30 20:42:00,11.0,8.0,29.41,NW,309,0.0,6.0,87,0.00,,,0.00,,2013-01-31 02:42:00,
2013-01-30 20:52:00,11.0,8.0,29.41,NW,309,0.0,6.0,87,0.00,,,0.00,,2013-01-31 02:52:00,
2013-01-30 21:03:00,11.0,7.0,29.42,NNW,340,1.0,7.0,85,0.00,,,0.00,,2013-01-31 03:03:00,
2013-01-30 21:11:00,11.0,7.0,29.42,NNW,340,1.0,7.0,85,0.00,,,0.00,,2013-01-31 03:11:00,
2013-01-30 21:21:00,11.0,7.0,29.42,NW,305,0.0,5.0,84,0.00,,,0.00,,2013-01-31 03:21:00,
2013-01-30 21:32:00,11.0,7.0,29.43,NW,309,0.0,3.0,84,0.00,,,0.00,,2013-01-31 03:32:00,
2013-01-30 21:41:00,11.0,7.0,29.43,NW,309,0.0,3.0,84,0.00,,,0.00,,2013-01-31 03:41:00,
2013-01-30 21:52:00,10.0,6.0,29.43,WSW,245,0.0,3.0,85,0.00,,,0.00,,2013-01-31 03:52:00,
2013-01-30 22:02:00,10.0,6.0,29.44,West,271,0.0,5.0,85,0.00,,,0.00,,2013-01-31 04:02:00,
2013-01-30 22:11:00,10.0,6.0,29.44,West,271,0.0,5.0,85,0.00,,,0.00,,2013-01-31 04:11:00,
2013-01-30 22:22:00,10.0,6.0,29.43,NNE,18,0.0,4.0,84,0.00,,,0.00,,2013-01-31 04:22:00,
2013-01-30 22:31:00,10.0,6.0,29.44,NW,309,0.0,4.0,84,0.00,,,0.00,,2013-01-31 04:31:00,
2013-01-30 22:41:00,10.0,6.0,29.44,NW,309,0.0,4.0,84,0.00,,,0.00,,2013-01-31 04:41:00,
2013-01-30 22:52:00,10.0,6.0,29.44,West,274,0.0,3.0,85,0.00,,,0.00,,2013-01-31 04:52:00,
2013-01-30 23:03:00,10.0,6.0,29.44,NW,312,1.0,7.0,85,0.00,,,0.00,,2013-01-31 05:03:00,
2013-01-30 23:11:00,10.0,6.0,29.44,NW,312,1.0,7.0,85,0.00,,,0.00,,2013-01-31 05:11:00,
2013-01-30 23:22:00,10.0,6.0,29.45,WSW,245,1.0,5.0,85,0.00,,,0.00,,2013-01-31 05:22:00,
2013-01-30 23:32:00,10.0,6.0,29.45,WSW,245,1.0,5.0,85,0.00,,,0.00,,2013-01-31 05:32:00,
2013-01-30 23:41:00,10.0,6.0,29.46,West,266,0.0,6.0,85,0.00,,,0.00,,2013-01-31 05:41:00,
2013-01-30 23:52:00,10.0,6.0,29.46,West,266,0.0,6.0,85,0.00,,,0.00,,2013-01-31 05:52:00,